Location: St. Louis
(38.6270°N, 90.1994°W)
Time: 01:09:52
(UTC-06:00)

Vanguard 2 - Pass Details

Date: 01 December 2021
Orbit: 553 x 2936 km, 32.9° (Epoch: 16 January)

Event Time Altitude Azimuth Distance (km) Brightness Sun altitude
Rises 21:44:12 0° 263° (W) 5,503 12.3 -58.4°
Reaches altitude 10° 21:51:23 10° 236° (SW) 5,049 11.8 -59.6°
Maximum altitude 21:56:01 12° 218° (SW) 5,149 11.7 -60.5°
Enters shadow 21:58:48 11° 207° (SSW) 5,339 11.7 -61.0°
Drops below altitude 10° 22:01:02 10° 200° (SSW) 5,547 - -61.3°
Sets 22:10:25 0° 174° (S) 6,770 - -62.9°
